Flag for Japan Weather past 2 weeks in Minamisōma, Japan

Now
70 °F

Sunny.


Feels Like: 70 °F
Forecast: 49 / 72 °F
Wind: 9 mph from Southeast

Location: Sendai Airport

Current Time: Apr 28, 2015 at 11:56:10 AM

Latest Report: Apr 28, 2015 at 11:00 AM


Visibility: 10 mi

Pressure: 30.04 "Hg

Humidity: 43%

Dew point: 46 °F

Location of MinamisōmaLocation

Historic Weather in Minamisōma — Graph

°F

Minamisōma temperature yesterday

Maximum temperature yesterday: 72 °F (at 9:00 AM)
Minimum temperature yesterday: 52 °F (at 6:00 AM)
Average temperature yesterday: 64 °F

Past Weeks' High & Low Weather Summary

 TemperatureHumidityPressure
High72 °F (Apr 27, 9:00 AM)100% (Apr 13, 9:00 PM)30.39 "Hg (Apr 13, 9:00 PM)
Low41 °F (Apr 22, 6:00 AM)17% (Apr 18, 1:00 PM)29.50 "Hg (Apr 15, 3:00 PM)
Average56 °F67%29.93 "Hg
* Reported Apr 13 10:00 AM — Apr 28 10:00 AM, Minamisōma, Weather by CustomWeather, © 2015

Note: Actual official high and low records may vary slightly from our data, if they occured in-between our weather recording intervals... More about our weather records

Advertising

Minamisōma weather history for previous 24 hours

 ConditionsComfort  
Time TempWeatherWind HumidityBarometerVisibility
10:00 AM
Tue, Apr 28
68 °FSunny.8 mph49%30.04 "Hg10 mi
9:00 AM72 °FPassing clouds.3 mph44%30.04 "HgN/A
8:00 AM68 °FSunny.1 mph49%30.04 "Hg10 mi
7:00 AM59 °FPassing clouds.No wind77%30.04 "HgN/A
6:00 AM54 °FSunny.2 mph82%30.04 "Hg10 mi
9:00 PM
Mon, Apr 27
57 °FClear.2 mph88%29.98 "Hg4 mi
8:00 PM57 °FClear.3 mph88%29.98 "Hg4 mi
7:00 PM57 °FClear.8 mph88%29.95 "Hg4 mi
6:00 PM61 °FClear.5 mph77%29.95 "Hg4 mi
5:00 PM64 °FClear.3 mph64%29.92 "Hg5 mi
4:00 PM68 °FSunny.10 mph56%29.92 "Hg10 mi
3:00 PM66 °FSunny.15 mph60%29.92 "Hg10 mi
2:00 PM68 °FSunny.14 mph56%29.92 "Hg10 mi
1:00 PM68 °FPassing clouds.14 mph53%29.95 "HgN/A
12:00 PM68 °FPassing clouds.15 mph53%29.95 "HgN/A
11:00 AM72 °FSunny.13 mph44%29.98 "Hg10 mi
Weather by CustomWeather, © 2015

See weather overviewHow to use our weather pages